WA7RHK-2 Weather Reports


time (UTC)temp
C
wind
direction
speed
KPH
gust
KPH
rain 1hr
cm
rain 24hr
cm
rain mn
cm
humidity
%
barometer
mb
20211017154530 18 124 0.0 4.8 0.00 0.00 0.00 52 1027.4
20211017153035 17 86 1.6 4.8 0.00 0.00 0.00 56 1027.5
20211017151553 16 262 0.0 4.8 0.00 0.00 0.00 67 1027.7
20211017150104 15 257 0.0 3.2 0.00 0.00 0.00 72 1027.7
20211017144530 13 321 1.6 4.8 0.00 0.00 0.00 78 1027.5
20211017143008 12 276 0.0 4.8 0.00 0.00 0.00 78 1027.4
20211017141511 11 280 0.0 4.8 0.00 0.00 0.00 81 1027.3
20211017140003 10 260 0.0 3.2 0.00 0.00 0.00 84 1027.1
20211017134504 9 316 0.0 3.2 0.00 0.00 0.00 88 1027.0
20211017133210 8 325 0.0 1.6 0.00 0.00 0.00 88 1026.7
20211017131655 8 326 0.0 1.6 0.00 0.00 0.00 86 1026.6
20211017130105 8 326 0.0 1.6 0.00 0.00 0.00 84 1026.4
20211017124559 8 319 0.0 3.2 0.00 0.00 0.00 84 1026.4
20211017123219 8 325 0.0 4.8 0.00 0.00 0.00 87 1026.3
20211017121628 8 332 0.0 4.8 0.00 0.00 0.00 88 1026.2
20211017120115 8 345 1.6 4.8 0.00 0.00 0.00 89 1026.1
20211017114634 -17 0.0 0.0 0.00 0.00 0.00 1026.2
20211017113125 -17 0.0 0.0 0.00 0.00 0.00 1026.2
20211017111548 -17 0.0 0.0 0.00 0.00 0.00 1026.0
20211017110111 -17 0.0 0.0 0.00 0.00 0.00 1026.0
20211017104536 -17 0.0 0.0 0.00 0.00 0.00 1025.8
20211017103050 -17 0.0 0.0 0.00 0.00 0.00 1025.8
20211017101612 -17 0.0 0.0 0.00 0.00 0.00 1025.8
20211017100047 -17 0.0 0.0 0.00 0.00 0.00 1025.8
20211017094528 -17 0.0 0.0 0.00 0.00 0.00 1025.9
20211017093008 -17 0.0 0.0 0.00 0.00 0.00 1025.8
20211017091506 9 330 0.0 1.6 0.00 0.00 0.00 84 1026.0
20211017090004 10 323 0.0 1.6 0.00 0.00 0.00 84 1026.1
20211017084514 10 331 0.0 3.2 0.00 0.00 0.00 83 1026.0
20211017083011 10 314 0.0 1.6 0.00 0.00 0.00 83 1026.1
20211017081711 10 317 0.0 1.6 0.00 0.00 0.00 83 1026.2
20211017080141 10 317 0.0 0.0 0.00 0.00 0.00 83 1026.3
20211017074652 10 318 0.0 1.6 0.00 0.00 0.00 82 1026.2
20211017073128 10 318 0.0 1.6 0.00 0.00 0.00 81 1026.1
20211017071607 10 328 0.0 1.6 0.00 0.00 0.00 79 1026.1
20211017070126 11 321 0.0 1.6 0.00 0.00 0.00 78 1026.0
20211017064625 10 336 0.0 1.6 0.00 0.00 0.00 78 1026.0
20211017063103 10 298 0.0 1.6 0.00 0.00 0.00 75 1025.9
20211017061642 11 298 0.0 1.6 0.00 0.00 0.00 74 1025.8
20211017060053 11 298 0.0 1.6 0.00 0.00 0.00 72 1025.9
20211017054637 11 298 0.0 0.0 0.00 0.00 0.00 69 1025.8
20211017053130 11 298 0.0 1.6 0.00 0.00 0.00 66 1026.0
20211017051604 12 298 0.0 1.6 0.00 0.00 0.00 61 1026.0
20211017050112 12 304 0.0 3.2 0.00 0.00 0.00 59 1026.0
20211017044608 13 297 0.0 3.2 0.00 0.00 0.00 58 1025.9
20211017043039 13 266 0.0 0.0 0.00 0.00 0.00 58 1026.0
20211017041555 13 266 0.0 0.0 0.00 0.00 0.00 56 1026.0
20211017040033 14 266 0.0 0.0 0.00 0.00 0.00 53 1025.9
20211017034530 14 266 0.0 1.6 0.00 0.00 0.00 51 1025.7
20211017033052 15 311 0.0 0.0 0.00 0.00 0.00 50 1025.8
20211017031542 15 316 0.0 0.0 0.00 0.00 0.00 51 1025.7
20211017030041 15 309 0.0 1.6 0.00 0.00 0.00 50 1025.7
20211017024551 15 319 0.0 1.6 0.00 0.00 0.00 49 1025.6
20211017023103 15 320 0.0 0.0 0.00 0.00 0.00 49 1025.7
20211017021555 15 321 0.0 1.6 0.00 0.00 0.00 49 1025.6
20211017020037 15 320 0.0 0.0 0.00 0.00 0.00 49 1025.5
20211017014532 15 320 0.0 1.6 0.00 0.00 0.00 49 1025.4
20211017013044 15 320 0.0 3.2 0.00 0.00 0.00 49 1025.3
20211017011558 15 319 0.0 1.6 0.00 0.00 0.00 50 1025.2
20211017010106 16 285 0.0 0.0 0.00 0.00 0.00 48 1025.4
20211017004528 16 309 0.0 1.6 0.00 0.00 0.00 47 1025.1
20211017003049 17 277 0.0 1.6 0.00 0.00 0.00 46 1025.1
20211017001533 17 273 0.0 3.2 0.00 0.00 0.00 45 1024.8
20211017000036 18 300 0.0 4.8 0.00 0.00 0.00 43 1024.8
20211016234521 18 339 0.0 3.2 0.00 0.00 0.00 41 1024.8
20211016233036 19 335 0.0 11.3 0.00 0.00 0.00 38 1024.8
20211016231521 20 330 0.0 6.4 0.00 0.00 0.00 36 1024.7
20211016230024 20 1 1.6 12.9 0.00 0.00 0.00 36 1024.7
20211016224521 20 236 0.0 9.7 0.00 0.00 0.00 36 1024.9
20211016223032 21 328 1.6 11.3 0.00 0.00 0.00 34 1024.9
20211016221522 21 293 0.0 8.0 0.00 0.00 0.00 35 1024.9
20211016220021 21 281 1.6 14.5 0.00 0.00 0.00 33 1025.1
20211016214531 21 319 3.2 20.9 0.00 0.00 0.00 33 1025.1
20211016213030 21 25 3.2 14.5 0.00 0.00 0.00 32 1025.1
20211016211516 21 3 0.0 16.1 0.00 0.00 0.00 34 1025.1
20211016210039 22 314 0.0 11.3 0.00 0.00 0.00 34 1025.1
20211016204513 21 309 1.6 11.3 0.00 0.00 0.00 34 1025.3
20211016203029 22 301 1.6 11.3 0.00 0.00 0.00 35 1025.3
20211016201514 22 283 1.6 11.3 0.00 0.00 0.00 35 1025.3
20211016200019 22 354 0.0 8.0 0.00 0.00 0.00 36 1025.6
20211016194523 21 336 0.0 12.9 0.00 0.00 0.00 34 1025.7
20211016193009 22 329 0.0 9.7 0.00 0.00 0.00 34 1025.8
20211016191522 22 108 0.0 6.4 0.00 0.00 0.00 37 1026.1
20211016190037 21 40 3.2 17.7 0.00 0.00 0.00 36 1026.3
20211016184505 21 89 1.6 12.9 0.00 0.00 0.00 37 1026.5
20211016183003 21 65 0.0 11.3 0.00 0.00 0.00 41 1026.9
20211016181503 21 27 0.0 11.3 0.00 0.00 0.00 41 1027.1
20211016180211 21 61 1.6 14.5 0.00 0.00 0.00 38 1027.4
20211016174622 21 324 0.0 11.3 0.00 0.00 0.00 39 1027.6
20211016173150 20 315 6.4 20.9 0.00 0.00 0.00 37 1027.7
20211016171639 20 307 1.6 9.7 0.00 0.00 0.00 39 1028.0
20211016170131 20 34 3.2 14.5 0.00 0.00 0.00 41 1028.0
20211016164630 20 356 4.8 14.5 0.00 0.00 0.00 46 1028.1
20211016163103 19 343 0.0 14.5 0.00 0.00 0.00 44 1028.1
20211016161635 19 302 1.6 11.3 0.00 0.00 0.00 44 1028.1
20211016160121 18 350 1.6 9.7 0.00 0.00 0.00 54 1028.2